International Skating Union - Official Site

ESSENT ISU WORLD DISTANCES CHAMPIONSHIPS 2012
March 22-25, 2012

Draw | Lap Times | Index | Classification

Referee: Susan  SANDVIG-SHOBE  (USA)
Starter: Jouko  VESTERLUND  (FIN)
StartTime: EndTime: Air Temp: Ice Temp: Humidity:
16:35 17:59
Result 5000m Ladies
Rankings as of Mar 24 2012 7:33PM
Rank: No.: Name: Nation: Time: Behind: Points:
1 19 Martina  SÁBLIKOVÁ CZE CZE 6:50.46200m - 20.44 - (20.4)
600m - 53.01 - (32.5)
1000m - 1:25.78 - (32.7)
1400m - 1:58.82 - (33.0)
1800m - 2:31.32 - (32.5)
2200m - 3:04.10 - (32.7)
2600m - 3:36.71 - (32.6)
3000m - 4:09.37 - (32.6)
3400m - 4:41.70 - (32.3)
3800m - 5:14.11 - (32.4)
4200m - 5:46.34 - (32.2)
4600m - 6:18.66 - (32.3)
5000m - 6:50.46 - (31.8)
41.046
2 20 Stephanie  BECKERT GER GER 6:56.64200m - 21.40 - (21.4)
600m - 54.28 - (32.8)
1000m - 1:26.86 - (32.5)
1400m - 1:59.46 - (32.6)
1800m - 2:32.01 - (32.5)
2200m - 3:04.50 - (32.4)
2600m - 3:37.16 - (32.6)
3000m - 4:10.31 - (33.1)
3400m - 4:43.36 - (33.0)
3800m - 5:16.59 - (33.2)
4200m - 5:50.03 - (33.4)
4600m - 6:23.80 - (33.7)
5000m - 6:56.64 - (32.8)
6.18 41.664
3 27 Claudia  PECHSTEIN GER GER 7:04.01200m - 21.06 - (21.0)
600m - 54.03 - (32.9)
1000m - 1:27.79 - (33.7)
1400m - 2:01.00 - (33.2)
1800m - 2:34.00 - (33.0)
2200m - 3:07.33 - (33.3)
2600m - 3:40.92 - (33.5)
3000m - 4:14.30 - (33.3)
3400m - 4:48.10 - (33.8)
3800m - 5:21.83 - (33.7)
4200m - 5:56.15 - (34.3)
4600m - 6:30.57 - (34.4)
5000m - 7:04.01 - (33.4)
13.55 42.401
4 65 Olga  GRAF RUS RUS 7:10.22200m - 21.86 - (21.8)
600m - 55.18 - (33.3)
1000m - 1:28.58 - (33.4)
1400m - 2:02.44 - (33.8)
1800m - 2:36.59 - (34.1)
2200m - 3:10.64 - (34.0)
2600m - 3:44.48 - (33.8)
3000m - 4:18.32 - (33.8)
3400m - 4:52.04 - (33.7)
3800m - 5:26.27 - (34.2)
4200m - 6:00.59 - (34.3)
4600m - 6:35.41 - (34.8)
5000m - 7:10.22 - (34.8)
19.76 43.022
5 51 Diane  VALKENBURG NED NED 7:13.61200m - 20.90 - (20.9)
600m - 55.23 - (34.3)
1000m - 1:30.16 - (34.9)
1400m - 2:04.69 - (34.5)
1800m - 2:38.96 - (34.2)
2200m - 3:13.14 - (34.1)
2600m - 3:47.53 - (34.3)
3000m - 4:21.92 - (34.4)
3400m - 4:56.34 - (34.4)
3800m - 5:30.57 - (34.2)
4200m - 6:04.87 - (34.3)
4600m - 6:39.21 - (34.3)
5000m - 7:13.61 - (34.4)
23.15 43.361
6 44 Do-Yeong  PARK KOR KOR 7:13.74200m - 20.91 - (20.9)
600m - 53.98 - (33.0)
1000m - 1:28.58 - (34.6)
1400m - 2:02.36 - (33.7)
1800m - 2:36.55 - (34.2)
2200m - 3:10.58 - (34.0)
2600m - 3:44.86 - (34.2)
3000m - 4:19.36 - (34.5)
3400m - 4:53.87 - (34.5)
3800m - 5:28.56 - (34.6)
4200m - 6:03.57 - (35.0)
4600m - 6:38.57 - (34.9)
5000m - 7:13.74 - (35.1)
23.28 43.374
7 9 Cindy  KLASSEN CAN CAN 7:14.19200m - 20.82 - (20.8)
600m - 54.52 - (33.7)
1000m - 1:28.64 - (34.1)
1400m - 2:02.25 - (33.6)
1800m - 2:35.96 - (33.7)
2200m - 3:10.13 - (34.1)
2600m - 3:44.10 - (33.9)
3000m - 4:18.28 - (34.1)
3400m - 4:52.73 - (34.4)
3800m - 5:27.39 - (34.6)
4200m - 6:02.21 - (34.8)
4600m - 6:37.68 - (35.4)
5000m - 7:14.19 - (36.5)
23.73 43.419
8 54 Annouk  van der WEIJDEN NED NED 7:15.84200m - 20.59 - (20.6)
600m - 54.51 - (33.9)
1000m - 1:28.66 - (34.1)
1400m - 2:02.37 - (33.7)
1800m - 2:36.40 - (34.0)
2200m - 3:10.52 - (34.1)
2600m - 3:45.00 - (34.4)
3000m - 4:19.61 - (34.6)
3400m - 4:54.58 - (34.9)
3800m - 5:29.57 - (35.0)
4200m - 6:04.82 - (35.2)
4600m - 6:40.18 - (35.3)
5000m - 7:15.84 - (35.6)
25.38 43.584
9 52 Jorien  VOORHUIS NED NED 7:16.21200m - 20.28 - (20.2)
600m - 52.64 - (32.3)
1000m - 1:26.41 - (33.7)
1400m - 2:00.25 - (33.8)
1800m - 2:34.42 - (34.1)
2200m - 3:08.26 - (33.8)
2600m - 3:42.32 - (34.0)
3000m - 4:16.45 - (34.1)
3400m - 4:50.91 - (34.4)
3800m - 5:25.87 - (34.9)
4200m - 6:01.89 - (36.0)
4600m - 6:38.61 - (36.7)
5000m - 7:16.21 - (37.6)
25.75 43.621
10 33 Ayaka  KIKUCHI JPN JPN 7:17.18200m - 20.70 - (20.7)
600m - 54.41 - (33.7)
1000m - 1:28.75 - (34.3)
1400m - 2:03.66 - (34.9)
1800m - 2:38.09 - (34.4)
2200m - 3:12.52 - (34.4)
2600m - 3:46.99 - (34.4)
3000m - 4:21.79 - (34.8)
3400m - 4:57.30 - (35.5)
3800m - 5:32.29 - (34.9)
4200m - 6:07.34 - (35.0)
4600m - 6:42.46 - (35.1)
5000m - 7:17.18 - (34.7)
26.72 43.718
11 30 Masako  HOZUMI JPN JPN 7:17.75200m - 21.14 - (21.1)
600m - 53.73 - (32.5)
1000m - 1:26.86 - (33.1)
1400m - 2:00.44 - (33.5)
1800m - 2:34.22 - (33.7)
2200m - 3:08.11 - (33.8)
2600m - 3:42.16 - (34.0)
3000m - 4:16.69 - (34.5)
3400m - 4:52.05 - (35.3)
3800m - 5:28.08 - (36.0)
4200m - 6:04.58 - (36.5)
4600m - 6:40.87 - (36.2)
5000m - 7:17.75 - (36.8)
27.29 43.775
12 32 Shiho  ISHIZAWA JPN JPN 7:20.15200m - 20.62 - (20.6)
600m - 53.10 - (32.4)
1000m - 1:26.44 - (33.3)
1400m - 2:00.07 - (33.6)
1800m - 2:34.40 - (34.3)
2200m - 3:09.10 - (34.7)
2600m - 3:44.41 - (35.3)
3000m - 4:19.96 - (35.5)
3400m - 4:55.88 - (35.9)
3800m - 5:31.85 - (35.9)
4200m - 6:07.81 - (35.9)
4600m - 6:43.83 - (36.0)
5000m - 7:20.15 - (36.3)
29.69 44.015
13 24 Bente  KRAUS GER GER 7:20.96200m - 21.26 - (21.2)
600m - 53.67 - (32.4)
1000m - 1:26.91 - (33.2)
1400m - 2:00.67 - (33.7)
1800m - 2:34.72 - (34.0)
2200m - 3:09.39 - (34.6)
2600m - 3:44.44 - (35.0)
3000m - 4:20.11 - (35.6)
3400m - 4:55.90 - (35.7)
3800m - 5:32.26 - (36.3)
4200m - 6:08.38 - (36.1)
4600m - 6:44.80 - (36.4)
5000m - 7:20.96 - (36.1)
30.50 44.096
14 63 Yevgenia  DMITRIEVA RUS RUS 7:23.02200m - 21.39 - (21.4)
600m - 55.85 - (34.4)
1000m - 1:30.51 - (34.6)
1400m - 2:05.04 - (34.5)
1800m - 2:39.48 - (34.4)
2200m - 3:14.22 - (34.7)
2600m - 3:49.13 - (34.9)
3000m - 4:24.31 - (35.1)
3400m - 4:59.91 - (35.6)
3800m - 5:35.73 - (35.8)
4200m - 6:11.40 - (35.6)
4600m - 6:47.23 - (35.8)
5000m - 7:23.02 - (35.7)
32.56 44.302
15 12 Brittany  SCHUSSLER CAN CAN 7:24.79200m - 21.46 - (21.4)
600m - 55.02 - (33.5)
1000m - 1:30.11 - (35.0)
1400m - 2:05.02 - (34.9)
1800m - 2:39.30 - (34.2)
2200m - 3:13.98 - (34.6)
2600m - 3:49.26 - (35.2)
3000m - 4:24.51 - (35.2)
3400m - 5:00.12 - (35.6)
3800m - 5:35.89 - (35.7)
4200m - 6:11.86 - (35.9)
4600m - 6:48.13 - (36.2)
5000m - 7:24.79 - (36.6)
34.33 44.479
16 7 Nicole  GARRIDO CAN CAN 7:31.26200m - 21.63 - (21.6)
600m - 56.42 - (34.8)
1000m - 1:31.85 - (35.4)
1400m - 2:07.32 - (35.4)
1800m - 2:42.83 - (35.5)
2200m - 3:18.53 - (35.7)
2600m - 3:54.23 - (35.7)
3000m - 4:30.61 - (36.3)
3400m - 5:07.02 - (36.4)
3800m - 5:43.38 - (36.3)
4200m - 6:19.53 - (36.1)
4600m - 6:55.61 - (36.0)
5000m - 7:31.26 - (35.6)
40.80 45.126